TimePDT,TemperatureF,Dew PointF,Humidity,Sea Level PressureIn,VisibilityMPH,Wind Direction,Wind SpeedMPH,Gust SpeedMPH,PrecipitationIn,Events,Conditions,WindDirDegrees,DateUTC
12:56 AM,50.0,43.0,77,30.01,10.0,West,13.8,-,N/A,,Clear,260,2013-05-24 07:56:00
1:56 AM,50.0,43.0,77,30.01,10.0,West,15.0,-,N/A,,Partly Cloudy,270,2013-05-24 08:56:00
2:56 AM,48.9,43.0,80,30.00,10.0,West,13.8,-,N/A,,Clear,260,2013-05-24 09:56:00
3:56 AM,48.9,43.0,80,29.99,10.0,West,12.7,-,N/A,,Clear,260,2013-05-24 10:56:00
4:56 AM,48.9,43.0,80,29.99,10.0,West,15.0,-,N/A,,Clear,260,2013-05-24 11:56:00
5:56 AM,48.9,43.0,80,30.00,10.0,West,16.1,-,N/A,,Scattered Clouds,260,2013-05-24 12:56:00
6:56 AM,48.9,43.0,80,30.01,10.0,West,13.8,-,N/A,,Partly Cloudy,260,2013-05-24 13:56:00
7:56 AM,52.0,43.0,71,30.01,10.0,West,12.7,-,N/A,,Partly Cloudy,260,2013-05-24 14:56:00
8:56 AM,54.0,43.0,66,30.02,10.0,WNW,9.2,-,N/A,,Partly Cloudy,290,2013-05-24 15:56:00
9:56 AM,57.0,39.9,53,30.02,10.0,West,6.9,-,N/A,,Partly Cloudy,280,2013-05-24 16:56:00
10:56 AM,61.0,39.9,46,30.02,10.0,WSW,15.0,-,N/A,,Partly Cloudy,250,2013-05-24 17:56:00
11:56 AM,61.0,42.1,50,30.03,10.0,West,17.3,-,N/A,,Partly Cloudy,270,2013-05-24 18:56:00
12:56 PM,60.1,42.1,51,30.02,10.0,West,17.3,-,N/A,,Partly Cloudy,270,2013-05-24 19:56:00
1:56 PM,61.0,42.1,50,30.02,10.0,West,17.3,25.3,N/A,,Partly Cloudy,270,2013-05-24 20:56:00
2:56 PM,60.1,43.0,53,30.02,10.0,WSW,21.9,27.6,N/A,,Partly Cloudy,250,2013-05-24 21:56:00
3:56 PM,60.1,43.0,53,30.01,10.0,West,23.0,28.8,N/A,,Scattered Clouds,260,2013-05-24 22:56:00
4:56 PM,59.0,42.1,53,30.00,10.0,West,28.8,36.8,N/A,,Partly Cloudy,270,2013-05-24 23:56:00
5:56 PM,57.0,41.0,55,29.99,10.0,West,26.5,36.8,N/A,,Scattered Clouds,260,2013-05-25 00:56:00
6:56 PM,55.0,41.0,59,29.98,10.0,West,29.9,43.7,N/A,,Scattered Clouds,260,2013-05-25 01:56:00
7:56 PM,53.1,41.0,64,29.99,10.0,WSW,27.6,38.0,N/A,,Scattered Clouds,250,2013-05-25 02:56:00
8:56 PM,52.0,42.1,69,29.98,10.0,WSW,21.9,33.4,N/A,,Scattered Clouds,250,2013-05-25 03:56:00
9:56 PM,51.1,42.1,71,29.99,10.0,West,13.8,24.2,N/A,,Scattered Clouds,260,2013-05-25 04:56:00
10:56 PM,51.1,43.0,74,30.01,10.0,West,21.9,28.8,N/A,,Partly Cloudy,270,2013-05-25 05:56:00
11:56 PM,51.1,43.0,74,30.01,10.0,West,26.5,-,N/A,,Partly Cloudy,260,2013-05-25 06:56:00